Regional Weather Roundup
Issued by NWS Newport/Morehead, NC

Current Version | Previous Version | Text Only | Print | Product List | Glossary On
Versions: 1 2 3 4 5 6 7 8 9 10 11 12 13 14 15 16 17 18 19 20 21 22 23 24 25 26 27 28 29 30 31 32 33 34 35 36 37 38 39 40 41 42 43 44 45 46 47 48 49 50
000
ASUS42 KMHX 020325
RWRMHX
WEATHER ROUNDUP FOR EASTERN NORTH CAROLINA
NATIONAL WEATHER SERVICE NEWPORT/MOREHEAD CITY NC
1100 PM EDT SUN MAY 01 2016

NOTE: "FAIR" INDICATES FEW OR NO CLOUDS BELOW 12,000 FEET
WITH NO SIGNIFICANT WEATHER AND/OR OBSTRUCTIONS TO VISIBILITY

NCZ015>017-031-032-045>047-102-103-020400-
NORTH COAST

CITY           SKY/WX    TMP DP  RH WIND       PRES   REMARKS
EDENTON        CLOUDY    68  68 100 S6        30.04F
ELIZABETH CITY CLOUDY    67  64  90 S6        30.04F
KITTY HAWK     CLOUDY    68  64  86 SW3       30.04S
MANTEO         NOT AVBL

$$

NCZ045>047-081-094-103-104-020400-
CENTRAL COAST

CITY           SKY/WX    TMP DP  RH WIND       PRES   REMARKS
FRISCO         CLOUDY    68  65  90 SW7       30.06S
SWANQUARTER    NOT AVBL

$$

NCZ095-097-098-100-101-020400-
SOUTHERN COAST

CITY           SKY/WX    TMP DP  RH WIND       PRES   REMARKS
BEAUFORT       CLOUDY    70  67  90 S9        30.04F
CEDAR ISLAND   NOT AVBL
JACKSONVILLE   CLOUDY    70  67  90 CALM      30.03S
PINEY ISLAND   NOT AVBL
WILMINGTON     CLOUDY    70  66  87 SW7       30.05R


$$

NCZ011>013-027>030-043-044-078>080-089-090>093-098-020400-
COASTAL PLAIN

CITY           SKY/WX    TMP DP  RH WIND       PRES   REMARKS
AHOSKIE        MOCLDY    64  63  96 S3        30.03R
CLINTON        MOCLDY    68  68 100 CALM      30.04R
ELIZABETHTOWN  CLOUDY    68  67  98 S3        30.03S
GOLDSBORO      CLOUDY    70  70 100 VRB1      30.02R
GREENVILLE     CLOUDY    68  66  94 S5        30.05S
HAVELOCK       CLOUDY    71  67  87 S9        30.05F
KENANSVILLE    CLOUDY    67  66  97 CALM      30.04S FOG
KINSTON        CLOUDY    68  67  96 CALM      30.04S
NEW BERN       MOCLDY    68  65  90 CALM      30.06R
RICHLANDS      CLOUDY    66  66 100 S3        30.04S FOG
ROCKY MOUNT    MOCLDY    64  64 100 S3        30.03R
WASHINGTON     CLOUDY    66  65  94 S3        30.04S
WHITEVILLE     CLOUDY    68  65  92 S5        30.03F

$$

AMZ130-135-150-152-154-156-158-170-250-252-270-ANZ085-086-088-633-658-670-020400-
MARINE OBSERVATIONS

STATION/POSITION TIME  TEMP    WIND        PRES    WAVE   SWELL
                       AIR SEA DIR/SP/G            HT/PER HT/PER
                 (UTC) (F)     (DEG/KT/KT) (MB)    (FT/S) (FT/S)
CHESAPEAKE LIGHT 0300   62     200/ 12/ 13 1017.5
64 E VA BEACH    0250   59 53  190/ 10/ 12 1017.5    4/10   3/10
DUCK             0300   68 67              1016.9
2 E DUCK         0241      59                N/A     3/ 9
OREGON INLET     0300   69 66              1017.4
13E OREGON INLT  0300      58                N/A     4/11   3/11
HATTERAS CG      0300   70 67              1017.5
DIAMOND BUOY     0250   74 74  190/ 17/ 21 1017.8    5/10   3/10
CAPE LOOKOUT     0300   69     190/  8/  9 1016.9
BEAUFORT LAB     0300   70 68              1016.4
30 SE NEW RVR IN 0255      69                N/A     4/11   2/11
27 SE WRIGHTSVLE 0308   73 71  200/ 14/ 17 1016.9
5 SE WRIGHTSVLE  0208   71 68  200/ 14/ 16 1017.5
225 S CAPE HAT   0250   73 74  140/ 14/ 14 1020.6    4/ 9   3/ 9
41 SE CHARLESTON 0250   75 73  160/ 10/ 12 1017.7    3/10   3/10

$$




USA.gov is the U.S. government's official web portal to all federal, state and local government web resources and services.